Find Starlink 34510

NORAD ID: 64596 Int'l Des: 2025-137 Owner: SPXS Country: US Constellation: starlink operational
LEOCIRCULAR

Aktuelle Ansicht

3D-Globus wird geladen...

Über Starlink 34510

Beschreibung wird geladen...

Nächste Überflüge

Passes for default location (London). Set your location on the main map for personalized predictions.

Höhenverlauf

Loading altitude history...

Zweizeiliger Elementsatz

1 64596U 25137C 26149.88044319 .00038800 00000-0 13152-2 0 9990
2 64596 53.1600 318.2525 0001318 88.7516 271.3636 15.30202904 53160
Epoch: 29. Mai 2026 • Age: 14 hours

Aktueller Status

Höhe 494.5 km
Geschwindigkeit 7.62 km/s
Subsatellitenpunkt -53.28°S, 172.18°E
Startdatum 25. Juni 2025
Alter 0.9 years
Typ internet

Technische Details

Klassifizierung Payload
Masse 575.00 kg
Trockenmasse 530.00 kg
Gesamtmasse 575.00 kg
Länge 0.30 m
Durchmesser 4.10 m
Spannweite 29.00 m
Form Box + pan
Hersteller SPXS
Bus-Typ Starlink V2MO
Phasenstatus In Orbit
Besitzer/Staat SPXS/US

Most Searched